Location: Jetmore Oil Field
(38.1181°N, 99.9337°W)
Time: 02:30:19
(UTC+00:00)

Daily predictions for brighter satellites

Satellite Brightness Start Highest point End
(mag) Time Altitude Azimuth Time Altitude Azimuth Time Altitude Azimuth
Cosmos 1939 Rocket 3.9 00:02:56 10° ESE 00:05:58 22° ENE 00:09:02 10° NNE
FengYun 1-2 T 4.4 00:02:07 10° SSE 00:07:29 52° ENE 00:12:49 10° N
Cosmos 2366 rocket 4.3 00:01:48 10° N 00:07:37 42° ENE 00:13:23 10° SSE
USA 81 4.3 00:03:03 10° N 00:08:08 45° E 00:13:09 10° SSE
Cosmos 1356 3.4 00:05:28 10° N 00:08:55 90° SSE 00:12:19 10° S
ADEOS Rocket 4.5 00:01:48 10° N 00:09:15 52° WNW 00:16:36 10° SW
CREW DRAGON DEMO-1 DEB 3.1 00:07:15 10° NW 00:10:08 43° NE 00:12:54 11° ESE
H-2A R/B 3.8 00:10:51 12° ENE 00:10:51 12° ENE 00:12:35 10° NE
Cosmos 44 3.7 00:07:38 10° NNW 00:12:48 48° NE 00:18:01 10° SE
NOAA 12 4.1 00:11:12 10° SSE 00:16:31 89° WSW 00:21:52 10° NNW
YAOGAN 6 4.1 00:16:55 10° S 00:20:21 40° W 00:23:49 10° NNW
YAOGAN 1 4.5 00:22:49 13° NE 00:22:49 13° NE 00:23:35 10° NNE
NOSS 3-2 (A) 4.4 00:19:35 10° SSE 00:23:48 23° ESE 00:26:19 17° ENE
Cosmos 2297 3.7 00:18:26 10° NNW 00:24:07 69° ENE 00:29:48 10° SSE
SL-16 R/B 2.7 00:20:03 10° SW 00:25:37 62° WNW 00:31:15 10° NNE
Cosmos 1470 Rocket 3.8 00:25:37 10° N 00:29:43 42° E 00:33:49 10° SSE
BREEZE-M DEB (TANK) 3.0 00:25:22 10° SW 00:29:56 38° SSE 00:31:23 23° E
Cosmos 2228 Rocket 4.2 00:27:57 10° SE 00:31:30 23° E 00:32:19 22° ENE
Sich 1 4.3 00:28:05 10° NNW 00:32:15 44° W 00:36:21 10° SSW
Cosmos 1515 Rocket 3.7 00:28:45 10° SSE 00:32:57 50° E 00:37:13 10° NNE
Cosmos 1151 Rocket 3.3 00:32:29 10° SSW 00:36:45 68° W 00:41:00 10° N
Cosmos 1812 4.1 00:33:52 10° SE 00:35:56 20° ESE 00:35:56 20° ESE
Cosmos 1933 4.4 00:33:38 10° SSW 00:37:31 48° W 00:41:28 10° N
COSMO-SKYMED 1 2.5 00:35:22 10° NNE 00:39:42 68° E 00:44:00 10° S
USA 215 3.2 00:34:27 15° NE 00:40:08 89° SE 00:46:41 10° SW
Cosmos 1782 2.6 00:37:01 10° S 00:40:56 79° E 00:44:55 10° N
USA 238 DEB 4.3 00:35:25 10° S 00:41:01 31° ESE 00:43:44 23° ENE
USA 238 4.4 00:35:31 10° S 00:41:07 31° ESE 00:43:47 23° ENE
Cosmos 1538 Rocket 4.0 00:38:16 10° S 00:43:37 75° ESE 00:48:49 11° NNE
MOS 1 Rocket 4.1 00:40:37 14° NNE 00:44:57 38° E 00:49:54 10° SSE
Cosmos 1602 3.6 00:41:55 10° N 00:45:48 68° E 00:49:39 10° SSE
CZ-2D R/B 3.4 00:43:07 10° SSE 00:46:46 47° ENE 00:50:28 10° N
Cosmos 864 Rocket 4.5 00:45:16 10° N 00:51:35 87° W 00:57:50 10° S
Nadezhda 3 Rocket 4.2 00:46:50 10° SSE 00:52:52 48° E 00:58:56 10° NNE
X-37B 1.0 00:50:21 10° W 00:53:26 50° NNW 00:53:55 45° N
SL-8 Rocket 4.4 00:47:20 10° NNW 00:53:30 65° W 00:59:42 10° S
SL-24 R/B 3.5 00:50:57 15° NNE 00:54:04 85° ESE 00:57:42 10° S
Cosmos 2285 Rocket 4.2 00:51:18 10° NNW 00:57:41 76° WSW 01:03:58 10° S
FALCON 9 R/B 1.2 00:56:32 10° WSW 00:58:37 39° S 00:58:37 39° S
Okean-O 2.8 00:54:38 10° SE 00:58:52 47° ENE 01:03:07 10° N
Cosmos 1933 Rocket 3.5 00:55:39 10° N 01:00:06 64° E 01:04:30 10° SSE
Cosmos 546 4.5 00:58:20 10° SW 01:02:10 86° NW 01:02:51 59° NE
Okean O Rocket 3.8 00:58:37 10° SSW 01:02:20 28° W 01:06:05 10° NW
Lacrosse 5 rocket 3.5 01:01:27 10° WNW 01:03:30 14° NNW 01:05:01 12° N
SWAS 4.3 00:59:19 10° SSW 01:03:34 75° ESE 01:04:47 45° NE
SAR-Lupe-4 4.1 01:01:48 18° N 01:04:20 59° WNW 01:07:52 10° SSW
Meteor 1-14 Rocket 4.3 01:00:40 10° N 01:06:40 84° E 01:12:39 10° S
Cosmos 1689 Rocket 2.4 01:06:56 63° WNW 01:06:56 63° WNW 01:09:49 10° SSW
Cosmos 1821 Rocket 4.0 01:02:26 10° N 01:08:34 55° E 01:14:44 10° SSE
USA 267 3.9 01:09:12 32° NE 01:10:31 35° NNE 01:16:17 10° NNW
Meteor 1-4 Rocket 4.3 01:08:20 10° SW 01:11:37 32° WNW 01:14:53 10° NNW
SL-24 DEB 4.5 01:09:00 10° N 01:13:43 70° W 01:18:22 10° SSW
BREEZE-M DEB (TANK) 3.5 01:04:45 10° WSW 01:14:58 72° NW 01:16:03 49° NNE
NOAA 15 4.5 01:10:34 10° SSE 01:15:48 65° ENE 01:21:02 10° N
USA 281 3.1 01:11:16 10° SE 01:17:43 64° ENE 01:24:12 10° NNW
CZ-2C R/B 2.8 01:12:59 10° SSE 01:18:06 77° ENE 01:23:00 10° N
DMSP B5D1-3 4.4 01:18:15 52° NE 01:19:10 62° ESE 01:24:14 10° S
Cosmos 1603 3.6 01:15:10 10° SSW 01:20:48 83° WNW 01:23:33 32° NNE
CZ-4B R/B 4.3 01:19:24 10° NW 01:21:05 14° WNW 01:22:47 10° WSW
Meteor 1-5 Rocket 4.1 01:20:32 10° N 01:26:27 73° E 01:32:09 10° SSE
Cosmos 1943 3.1 01:21:28 10° SSW 01:27:06 84° WNW 01:29:17 40° NNE
Meteor 1-10 Rocket 4.1 01:23:37 10° S 01:29:17 82° E 01:31:27 40° NNE
Cosmos 2369 Rocket 2.1 01:28:33 10° NNW 01:34:16 88° WSW 01:37:02 32° SSE
CZ-4 R/B 3.7 01:33:24 10° S 01:40:23 15° NNW 01:41:12 10° NNW
Cosmos 1943 Rocket 3.4 01:40:36 10° NW 01:45:46 41° WSW 01:50:57 10° S
NOSS 3-2 (C) 3.7 01:41:20 10° SSW 01:45:16 46° S 01:45:16 46° S
CZ-3B R/B 4.4 01:45:29 10° W 01:45:50 12° W 01:45:50 12° W
CENTAUR R/B 2.6 01:42:43 10° SSW 01:47:09 54° SSE 01:47:09 54° SSE
Cosmos 923 Rocket 4.2 01:44:05 10° SSW 01:49:13 64° WNW 01:49:34 62° NW
H-2A R/B 3.0 01:44:03 10° S 01:51:28 38° NNW 01:54:36 10° NNW
ATLAS CENTAUR R/B 4.2 01:43:59 10° NW 02:00:28 66° WSW 02:03:51 33° S
NOSS 3-2 (A) 4.0 02:08:38 10° SW 02:13:46 49° WNW 02:13:46 49° WNW
USA 215 4.5 02:21:49 30° NNW 02:22:36 31° NNW 02:28:10 10° W
USA 238 DEB 4.4 02:25:21 10° WSW 02:31:13 47° WNW 02:31:13 47° WNW
USA 238 4.4 02:25:25 10° SW 02:31:16 47° WNW 02:31:16 47° WNW
ATLAS 2AS CENTAUR R/B 4.4 09:38:11 30° ESE 09:38:11 30° ESE 09:44:41 10° NE
CZ-4C R/B 3.9 10:26:54 25° E 10:26:54 25° E 10:30:36 10° NE
ATLAS 3B R/B 4.5 10:39:42 18° N 10:42:51 24° NE 10:48:30 10° E
Cosmos 1844 Rocket 4.5 10:56:40 10° SSE 11:01:29 30° ESE 11:06:20 10° NE
Lacrosse 5 2.9 11:09:02 35° NNE 11:09:02 35° NNE 11:12:05 10° NE
NOSS 3-4 (A) 3.9 11:10:47 44° N 11:10:47 44° N 11:15:19 10° NNE
NOSS 3-4 (C) 3.9 11:10:52 45° N 11:10:52 45° N 11:15:27 10° NNE
SJ 16-02 3.8 11:14:10 13° NNE 11:14:10 13° NNE 11:14:43 10° NNE
Cosmos 489 Rocket 4.3 11:11:13 75° W 11:11:18 75° WSW 11:17:36 10° S
NOSS 3-2 (C) 4.0 11:10:08 52° NW 11:12:25 78° WSW 11:21:06 10° SSE
OAO 2 Rocket 3.7 11:12:56 58° SSE 11:12:56 58° SSE 11:17:32 10° E
CENTAUR R/B 3.1 11:10:33 48° NW 11:13:24 78° WSW 11:22:17 10° SSE
Cosmos 1538 Rocket 4.4 11:15:12 52° S 11:15:12 52° S 11:19:09 10° S
Atlas Centaur 2 3.3 11:17:04 34° SSW 11:18:44 39° S 11:24:02 10° ESE
ADEOS 3.5 11:14:46 10° NNE 11:20:01 82° ESE 11:25:14 10° SSW
Cosmos 2263 Rocket 3.8 11:30:10 19° N 11:30:10 19° N 11:32:06 10° N
Cosmos 1408 Rocket 4.1 11:23:37 10° S 11:27:59 60° E 11:32:24 10° NNE
ATLAS 2AS CENTAUR R/B 3.0 11:25:45 40° WSW 11:28:37 61° NW 11:36:27 10° NNE
Milstar 3 Cent rocket 3.8 11:26:49 29° SW 11:30:12 45° S 11:42:28 10° ESE
Cosmos 1898 Rocket 3.9 11:25:51 10° S 11:31:05 66° ESE 11:36:23 10° NNE
COSMO-SKYMED 1 3.7 11:28:34 10° SE 11:32:39 42° ENE 11:36:46 10° N
Gbstr 26 Del rocket 4.3 11:33:44 25° NNE 11:34:01 25° NNE 11:37:17 10° E
BREEZE-M DEB (TANK) 4.1 11:36:44 25° NNE 11:36:44 25° NNE 11:38:34 10° NE
Lacrosse 4 Rocket 1.3 11:39:58 69° NW 11:40:28 82° WSW 11:44:53 10° SSE
Genesis I 3.0 11:44:55 71° NNW 11:44:55 71° NNW 11:48:29 10° NNE
CZ-4B R/B 3.6 11:40:28 10° NNE 11:44:55 62° E 11:49:12 10° S
Meteor 1-26 Rocket 4.1 11:39:15 10° N 11:45:01 84° W 11:50:34 10° S
CZ-4B R/B 3.0 11:44:12 10° S 11:45:33 23° S 11:45:33 23° S
Cosmos 1937 Rocket 3.8 11:42:40 10° S 11:47:44 66° ESE 11:52:53 10° NNE
FENGYUN 3A 3.8 11:42:42 10° N 11:47:53 48° WNW 11:53:02 10° SW
Cosmos 1461 3.9 11:54:25 32° SW 11:54:25 32° SW 11:57:55 10° S
SAR-Lupe-1 4.3 11:51:30 10° SSE 11:55:02 70° ENE 11:57:24 20° N
